Location: Recife
(8.0585°S, 34.8848°W)
Time: 21:21:06
(UTC-03:00)

A-11 Canister half - Pass Details

Date: 22 April 2026
Orbit: 1523 x 1684 km, 47.3° (Epoch: 16 May)

Event Time Altitude Azimuth Distance (km) Brightness Sun altitude
Rises 16:27:53 0° 196° (SSW) 4,686 11.6 10.4°
Reaches altitude 10° 16:32:43 10° 175° (S) 3,718 10.9 9.2°
Maximum altitude 16:37:56 16° 140° (SE) 3,292 10.3 7.9°
Drops below altitude 10° 16:43:12 10° 106° (ESE) 3,769 10.4 6.7°
Sets 16:48:04 0° 85° (E) 4,783 11.0 5.5°
